Fredericksburg, Texas, United States (78624)
Lat: 30.27N, Lon: 98.87W
Wx Zone: TXZ188
Local Info
Past Weather Observations for Today

NOTE: This archive is for the closest National Weather Service station to Fredericksburg. Information may differ from the station used for current weather conditions.

Click here for Long-term Archive

Time Weather Temperature Dewpoint Humidity Pressure Winds Precip Visibility
10:35
Partly Cloudy
82°F / 28°C 63°F / 17°C 51% 30.09 in
(1019 mb)
SE 3.5 mph
(SE 6 kph)
- 10SM
10:15
Clear
82°F / 28°C 64°F / 18°C 55% 30.09 in
(1019 mb)
SSE 5.8 mph
(SSE 9 kph)
- 10SM
09:55
Partly Cloudy
81°F / 27°C 64°F / 18°C 58% 30.09 in
(1019 mb)
Calm - 10SM
09:35
Partly Cloudy
77°F / 25°C 64°F / 18°C 65% 30.09 in
(1019 mb)
Calm - 10SM
09:15
Partly Cloudy
77°F / 25°C 64°F / 18°C 65% 30.09 in
(1019 mb)
Calm - 10SM
08:55
Mostly Cloudy
77°F / 25°C 64°F / 18°C 65% 30.09 in
(1019 mb)
Calm - 10SM
08:35
Overcast
75°F / 24°C 66°F / 19°C 74% 30.09 in
(1019 mb)
SSE 3.5 mph
(SSE 6 kph)
- 10SM
08:15
Overcast
73°F / 23°C 66°F / 19°C 78% 30.09 in
(1019 mb)
SW 4.6 mph
(SW 7 kph)
- 10SM
07:55
Overcast
72°F / 22°C 66°F / 19°C 83% 30.09 in
(1019 mb)
Calm - 10SM
07:35
Mostly Cloudy
70°F / 21°C 68°F / 20°C 94% 30.09 in
(1019 mb)
SSE 3.5 mph
(SSE 6 kph)
- 10SM
07:15
Partly Cloudy
70°F / 21°C 66°F / 19°C 88% 30.09 in
(1019 mb)
Calm - 10SM
06:55
Partly Cloudy
68°F / 20°C 66°F / 19°C 94% 30.09 in
(1019 mb)
Calm - 10SM
06:35
Partly Cloudy
68°F / 20°C 66°F / 19°C 94% 30.09 in
(1019 mb)
Calm - 10SM
06:15
Partly Cloudy
68°F / 20°C 66°F / 19°C 94% 30.09 in
(1019 mb)
Calm - 10SM
05:55
Partly Cloudy
66°F / 19°C 64°F / 18°C 94% 30.06 in
(1018 mb)
Calm - 10SM
05:35
Clear
68°F / 20°C 66°F / 19°C 94% 30.06 in
(1018 mb)
Calm - 10SM
05:15
Partly Cloudy
70°F / 21°C 66°F / 19°C 88% 30.06 in
(1018 mb)
Calm - 10SM
04:55
Overcast
70°F / 21°C 66°F / 19°C 88% 30.06 in
(1018 mb)
Calm - 10SM
04:35
Overcast
70°F / 21°C 66°F / 19°C 88% 30.06 in
(1018 mb)
Calm - 10SM
04:15
Mostly Cloudy
70°F / 21°C 66°F / 19°C 88% 30.06 in
(1018 mb)
Calm - 10SM
03:55
Partly Cloudy
68°F / 20°C 64°F / 18°C 88% 30.06 in
(1018 mb)
Calm - 10SM
03:35
Clear
68°F / 20°C 64°F / 18°C 88% 30.06 in
(1018 mb)
Calm - 10SM
03:15
Clear
70°F / 21°C 64°F / 18°C 83% 30.06 in
(1018 mb)
Calm - 10SM
02:55
Partly Cloudy
70°F / 21°C 64°F / 18°C 83% 30.09 in
(1019 mb)
Calm - 10SM
02:35
Mostly Cloudy
70°F / 21°C 64°F / 18°C 83% 30.09 in
(1019 mb)
Calm - 10SM
02:15
Partly Cloudy
70°F / 21°C 64°F / 18°C 83% 30.09 in
(1019 mb)
Calm - 10SM
01:55
Clear
70°F / 21°C 64°F / 18°C 83% 30.09 in
(1019 mb)
Calm - 10SM
01:35
Clear
72°F / 22°C 64°F / 18°C 78% 30.09 in
(1019 mb)
Calm - 10SM
01:15
Clear
72°F / 22°C 64°F / 18°C 78% 30.09 in
(1019 mb)
Calm - 10SM
00:55
Clear
72°F / 22°C 64°F / 18°C 78% 30.09 in
(1019 mb)
SE 3.5 mph
(SE 6 kph)
- 10SM
00:35
Clear
72°F / 22°C 64°F / 18°C 78% 30.09 in
(1019 mb)
Calm - 10SM
00:15
Clear
73°F / 23°C 64°F / 18°C 74% 30.09 in
(1019 mb)
Calm - 10SM
Time Weather Temperature Dewpoint Humidity Pressure Winds Precip Visibility


Weather for websites

WeatherForYou.com, LLC is not responsible for any damages or problems caused by this service. Current weather conditions are obtained from the closest station including government and personal stations which may have varying degrees of accuracy. Weather forecasts are derived from the NOAA NDFD. Like all things, this site belongs to Jesus Christ... He just trusts us to maintain it. If you have any questions or comments email webmaster@weatherforyou.com

Copyright © 2015, WeatherForYou.com LLC. All rights reserved.